Location: Newark
(40.7066°N, 111.8219°W)
Time: 00:36:49
(UTC+00:00)

Transit 2A Rocket - Pass Details

Date: 21 November 2019
Orbit: 594 x 909 km, 66.7° (Epoch: 08 December)

Event Time Altitude Azimuth Distance (km) Brightness Sun altitude
Rises 13:10:44 0° 333° (NNW) 2,849 - -13.3°
Exits shadow 13:12:26 - 336° (NNW) 2,169 7.0 -13.0°
Reaches altitude 10° 13:12:58 10° 337° (NNW) 1,958 6.8 -12.9°
Maximum altitude 13:17:18 63° 59° (ENE) 702 5.0 -12.1°
Drops below altitude 10° 13:21:53 10° 140° (SE) 2,064 8.2 -11.2°
Sets 13:24:17 0° 144° (SE) 3,019 9.0 -10.8°
